Date String (YYYY-MM-DD hh:mm:ss) UTC,Instrument flags,Ambient pressure (hPa),Sample flow (lpm),Bypass flow (lpm),Sample temperature (°C),Ambient temperature (°C),ASC tube jacket temperature (°C),LED temperature (°C),Box temperature (°C),Sample RH (%),Span deviation,Mass concentration (μg/m³),Mass concentration (μg/m³),Mass concentration (μg/m³)
DateTimeUTC,F1_M11,P_M11,Q1_M11,Q2_M11,T1_M11,T2_M11,T3_M11,T4_M11,T5_M11,U1_M11,ZSPAN_M11,X0_M11,X2_M11,X1_M11
2021-10-04 01:00:00,,0830.2,4.99,0.00,29.5,27.9,00.0,38.5,31.3,11.8,0001.4,0008.62,0004.06,0003.63
2021-10-04 01:01:00,,0830.2,5.01,0.00,29.5,28.2,00.0,38.5,31.4,12.4,0001.8,0009.26,0004.09,0003.64
2021-10-04 01:02:00,,0830.2,4.98,0.00,29.6,28.4,00.0,38.5,31.4,12.3,0001.4,0009.11,0004.10,0003.65
2021-10-04 01:03:00,,0830.2,4.99,0.00,29.6,28.6,00.0,38.6,31.5,12.0,0001.7,0009.15,0004.09,0003.65
2021-10-04 01:04:00,,0830.3,5.00,0.00,29.6,28.7,00.0,38.6,31.5,11.9,0002.2,0009.03,0004.06,0003.65
2021-10-04 01:05:00,,0830.2,5.00,0.00,29.7,28.8,00.0,38.6,31.6,11.8,0002.4,0008.85,0004.06,0003.65
2021-10-04 01:06:00,,0830.3,5.01,0.00,29.7,28.9,00.0,38.6,31.6,11.8,0002.4,0008.72,0004.04,0003.64
2021-10-04 01:07:00,,0830.3,5.01,0.00,29.8,29.0,00.0,38.6,31.7,11.7,0002.2,0009.13,0004.04,0003.64
2021-10-04 01:08:00,,0830.3,5.00,0.00,29.8,28.3,00.0,38.7,31.5,11.6,0002.0,0009.43,0004.04,0003.64
2021-10-04 01:09:00,,0830.3,5.01,0.00,29.6,26.1,00.0,38.6,30.9,11.7,0001.9,0009.61,0004.03,0003.64
2021-10-04 01:10:00,,0830.3,4.99,0.00,29.4,25.3,00.0,38.6,30.6,11.9,0001.8,0009.75,0004.05,0003.63
2021-10-04 01:11:00,,0830.3,5.01,0.00,29.3,25.6,00.0,38.6,30.7,12.2,0001.6,0009.68,0004.04,0003.63
2021-10-04 01:12:00,,0830.3,4.99,0.00,29.3,26.1,00.0,38.5,30.8,12.7,0000.0,0009.34,0004.05,0003.64
2021-10-04 01:13:00,,0830.4,5.00,0.00,29.3,26.6,00.0,38.5,30.9,12.5,0000.0,0009.61,0004.03,0003.64
2021-10-04 01:14:00,,0830.3,5.00,0.00,29.3,27.0,00.0,38.4,31.0,12.3,0000.0,0009.83,0004.04,0003.64
2021-10-04 01:15:00,,0830.4,4.99,0.00,29.3,27.4,00.0,38.4,31.1,12.2,0000.0,0010.03,0004.11,0003.64
2021-10-04 01:16:00,,0830.4,5.00,0.00,29.3,27.7,00.0,38.4,31.1,12.2,0000.0,0009.93,0004.08,0003.63
2021-10-04 01:17:00,,0830.4,4.99,0.00,29.4,28.0,00.0,38.4,31.2,11.9,0000.4,0009.40,0004.06,0003.65
2021-10-04 01:18:00,,0830.4,5.02,0.00,29.4,28.1,00.0,38.4,31.2,11.7,0000.0,0008.90,0004.05,0003.65
2021-10-04 01:19:00,,0830.5,5.01,0.00,29.4,28.3,00.0,38.4,31.3,11.7,0000.0,0008.35,0004.04,0003.65
2021-10-04 01:20:00,,0830.4,5.00,0.00,29.5,28.5,00.0,38.5,31.3,11.8,0000.0,0008.16,0004.05,0003.65
2021-10-04 01:21:00,,0830.4,5.01,0.00,29.5,28.6,00.0,38.5,31.4,12.0,0000.5,0007.89,0004.05,0003.65
2021-10-04 01:22:00,,0830.4,4.99,0.00,29.6,28.7,00.0,38.5,31.4,11.9,0002.3,0008.00,0004.05,0003.65
2021-10-04 01:23:00,,0830.4,5.01,0.00,29.6,28.8,00.0,38.5,31.5,12.2,0002.7,0007.78,0004.04,0003.65
2021-10-04 01:24:00,,0830.4,5.00,0.00,29.6,28.9,00.0,38.5,31.5,12.1,0002.3,0007.37,0004.03,0003.65
2021-10-04 01:25:00,,0830.4,5.00,0.00,29.7,28.9,00.0,38.6,31.6,12.0,0002.4,0007.51,0004.01,0003.64
2021-10-04 01:26:00,,0830.4,5.01,0.00,29.7,29.0,00.0,38.6,31.6,12.0,0002.6,0007.54,0003.94,0003.64
2021-10-04 01:27:00,,0830.4,5.01,0.00,29.8,29.0,00.0,38.6,31.7,12.0,0002.7,0007.50,0003.92,0003.64
2021-10-04 01:28:00,,0830.4,5.01,0.00,29.8,29.0,00.0,38.7,31.7,12.1,0002.5,0007.60,0003.96,0003.64
2021-10-04 01:29:00,,0830.4,5.00,0.00,29.8,28.9,00.0,38.7,31.7,12.1,0002.3,0007.64,0003.94,0003.63
2021-10-04 01:30:00,,0830.4,5.00,0.00,29.7,26.9,00.0,38.7,31.2,12.3,0002.3,0007.66,0003.95,0003.63
2021-10-04 01:31:00,,0830.4,4.99,0.00,29.6,26.1,00.0,38.7,30.9,12.3,0002.4,0007.67,0003.97,0003.64
2021-10-04 01:32:00,,0830.4,5.01,0.00,29.5,26.4,00.0,38.6,31.0,12.4,0002.6,0007.66,0003.95,0003.64
2021-10-04 01:33:00,,0830.4,4.99,0.00,29.5,26.8,00.0,38.6,31.0,12.5,0002.9,0007.54,0003.95,0003.64
2021-10-04 01:34:00,,0830.4,4.99,0.00,29.5,27.2,00.0,38.6,31.1,12.5,0003.1,0007.48,0003.97,0003.65
2021-10-04 01:35:00,,0830.5,5.00,0.00,29.5,27.6,00.0,38.6,31.2,12.5,0003.3,0007.54,0003.98,0003.65
2021-10-04 01:36:00,,0830.5,5.01,0.00,29.5,27.9,00.0,38.6,31.3,12.5,0003.3,0007.33,0004.00,0003.66
2021-10-04 01:37:00,,0830.5,4.99,0.00,29.5,28.1,00.0,38.5,31.3,12.4,0003.2,0007.38,0004.00,0003.66
2021-10-04 01:38:00,,0830.5,5.00,0.00,29.6,28.3,00.0,38.6,31.4,12.4,0003.2,0007.63,0004.01,0003.66
2021-10-04 01:39:00,,0830.5,5.00,0.00,29.6,28.4,00.0,38.6,31.4,12.4,0003.4,0008.28,0004.01,0003.66
2021-10-04 01:40:00,,0830.5,5.00,0.00,29.6,28.5,00.0,38.6,31.5,12.3,0003.5,0008.48,0004.02,0003.67
2021-10-04 01:41:00,,0830.6,5.02,0.00,29.7,28.7,00.0,38.6,31.5,12.3,0003.7,0008.55,0004.04,0003.68
2021-10-04 01:42:00,,0830.6,5.00,0.00,29.7,28.7,00.0,38.6,31.6,12.3,0003.5,0008.52,0004.03,0003.68
2021-10-04 01:43:00,,0830.6,4.99,0.00,29.7,28.8,00.0,38.7,31.6,12.3,0003.4,0008.53,0004.03,0003.68
2021-10-04 01:44:00,,0830.6,4.99,0.00,29.8,28.9,00.0,38.7,31.7,12.3,0003.2,0008.76,0004.07,0003.69
2021-10-04 01:45:00,,0830.6,5.01,0.00,29.8,29.0,00.0,38.7,31.7,12.3,0003.0,0009.30,0004.07,0003.69
2021-10-04 01:46:00,,0830.6,5.01,0.00,29.8,29.0,00.0,38.7,31.7,12.3,0002.7,0009.26,0004.06,0003.68
2021-10-04 01:47:00,,0830.6,4.99,0.00,29.9,29.1,00.0,38.8,31.7,12.2,0002.7,0009.01,0004.04,0003.68
2021-10-04 01:48:00,,0830.6,4.99,0.00,29.9,29.0,00.0,38.8,31.7,12.1,0002.7,0008.79,0004.05,0003.68
2021-10-04 01:49:00,,0830.6,5.00,0.00,29.8,27.3,00.0,38.8,31.3,12.2,0002.5,0008.56,0004.05,0003.69
2021-10-04 01:50:00,,0830.6,5.01,0.00,29.7,26.1,00.0,38.7,30.9,12.3,0002.5,0007.88,0004.05,0003.69
2021-10-04 01:51:00,,0830.6,5.00,0.00,29.6,26.3,00.0,38.7,30.9,12.3,0002.4,0007.82,0004.07,0003.68
2021-10-04 01:52:00,,0830.6,4.99,0.00,29.5,26.7,00.0,38.7,31.0,12.5,0002.3,0008.06,0004.07,0003.68
2021-10-04 01:53:00,,0830.6,5.00,0.00,29.5,27.1,00.0,38.7,31.1,12.4,0002.3,0008.15,0004.08,0003.68
2021-10-04 01:54:00,,0830.6,5.00,0.00,29.5,27.5,00.0,38.6,31.2,12.4,0002.2,0008.24,0004.11,0003.68
2021-10-04 01:55:00,,0830.6,5.01,0.00,29.5,27.8,00.0,38.6,31.3,12.4,0002.0,0008.10,0004.06,0003.67
2021-10-04 01:56:00,,0830.6,5.00,0.00,29.5,28.0,00.0,38.6,31.3,12.6,0002.7,0007.66,0004.07,0003.66
2021-10-04 01:57:00,,0830.6,4.98,0.00,29.5,28.2,00.0,38.6,31.4,12.7,0003.0,0007.47,0004.05,0003.65
2021-10-04 01:58:00,,0830.6,5.00,0.00,29.6,28.3,00.0,38.6,31.4,12.5,0002.6,0007.53,0004.07,0003.65
2021-10-04 01:59:00,,0830.6,5.00,0.00,29.6,28.5,00.0,38.6,31.4,12.4,0002.1,0007.52,0004.08,0003.65
